Regional Weather Roundup
Issued by NWS

Home | Current Version | Previous Version | Graphics & Text | Print | Product List | Glossary On
Versions: 1 2 3 4 5 6 7 8 9 10 11 12 13 14 15 16 17 18 19 20 21 22 23 24 25 26 27 28 29 30 31 32 33 34 35 36 37 38 39 40 41 42 43 44 45 46 47 48 49 50
000
ASUS43 KDTX 251310
RWRMI
MICHIGAN HOURLY REGIONAL WEATHER ROUNDUP
NATIONAL WEATHER SERVICE DETROIT/PONTIAC MI
900 AM EDT TUE JUL 25 2017

NOTE: "FAIR" INDICATES FEW OR NO CLOUDS BELOW 12,000 FEET WITH NO
SIGNIFICANT WEATHER AND/OR OBSTRUCTION TO VISIBILITY.

MIZ047>049-052>055-059>063-066>070-074>076-081>083-251400-
SOUTHEAST LOWER MICHIGAN

CITY           SKY/WX    TMP DP  RH WIND       PRES   REMARKS
ADRIAN         SUNNY     64  54  69 E7        30.24R
ALMA           SUNNY     65  57  76 CALM      30.24R
ANN ARBOR      SUNNY     66  55  67 N5        30.23R
BAD AXE          N/A    N/A N/A N/A MISG        N/A
CARO           SUNNY     62  55  80 CALM      30.23R
DETROIT CITY   SUNNY     67  55  65 NE8       30.22R
DETROIT        MOSUNNY   67  55  65 NE6       30.22S
FLINT          SUNNY     65  54  67 CALM      30.23R
GROSSE ILE     SUNNY     67  55  66 N8        30.21S
HILLSDALE      SUNNY     63  52  67 E3        30.24R
HOWELL         SUNNY     63  54  74 CALM      30.24R

CITY           SKY/WX    TMP DP  RH WIND       PRES   REMARKS
JACKSON        SUNNY     65  52  62 E5        30.24R
LAMBERTVILLE   SUNNY     64  56  75 CALM      30.22S
LANSING        SUNNY     66  56  70 CALM      30.24R
LAPEER         FAIR      62  57  82 N3        30.23F
MASON          SUNNY     63  56  79 CALM      30.24S
MONROE         SUNNY     64  56  76 CALM      30.22R
MT. CLEMENS    MOSUNNY   67  56  70 N7        30.20R
PONTIAC        MOSUNNY   65  54  67 N3        30.22R
PORT HOPE        N/A     69  59  70 VRB3      30.22R
PORT HURON     SUNNY     66  57  72 N5        30.22R
TRI CITIES     SUNNY     66  58  75 CALM      30.24R
MIDLAND        FAIR      63  59  86 CALM      30.24R
TROY           SUNNY     67  53  62 NE7       30.24R
SAGINAW HB     SUNNY     64  55  72 CALM      30.23R
$$
MIZ043>046-050>051-056>058-064>065-071>073-077>080-251400-
SOUTHWEST LOWER MICHIGAN

CITY           SKY/WX    TMP DP  RH WIND       PRES   REMARKS
BATTLE CREEK   SUNNY     66  55  67 SE3       30.23S
BENTON HARBOR  SUNNY     67  55  65 SE6       30.22R
BIG RAPIDS     SUNNY     61  55  81 CALM      30.23R
COLDWATER      SUNNY     65  58  80 CALM      30.24R
FREMONT        FAIR      65  53  63 S5        30.21S
GRAND RAPIDS   MOSUNNY   66  58  75 S3        30.22S
IONIA          FAIR      64  56  75 CALM      30.23R
KALAMAZOO      SUNNY     67  55  65 VRB3      30.23S
LUDINGTON      SUNNY     66  58  75 SE5       30.20R
MARSHALL       SUNNY     64  56  75 CALM      30.23S
MOUNT PLEASANT SUNNY     66  55  66 CALM      30.22S
MUSKEGON       MOSUNNY   68  57  68 SE9       30.21R
SOUTH HAVEN    SUNNY     67  60  78 SE3       30.22R
$$
MIZ016>042-251400-
NORTHERN LOWER MICHIGAN

CITY           SKY/WX    TMP DP  RH WIND       PRES   REMARKS
ALPENA         SUNNY     64  56  75 W3        30.24R
BEAVER ISLAND  SUNNY     66  58  76 SE6       30.22R
BELLAIRE       SUNNY     61  53  74 CALM      30.22S
CADILLAC       SUNNY     67  55  64 CALM      30.22R
CHARLEVOIX     SUNNY     63  55  75 SE5       30.24S
FRANKFORT      SUNNY     66  56  69 CALM      30.20R
GAYLORD        SUNNY     63  53  70 SW3       30.24R
GRAYLING       SUNNY     59  52  76 CALM      30.24S
HARBOR SPRINGS SUNNY     63  53  69 CALM      30.22S
HOUGHTON LAKE  SUNNY     61  57  87 E3        30.25R
MANISTEE       SUNNY     62  56  80 VRB5      30.20S
OSCODA         SUNNY     65  53  65 CALM      30.23R
PELLSTON       SUNNY     61  54  77 CALM      30.23R
ROGERS CITY    SUNNY     65  57  77 CALM      30.24R
TRAVERSE CITY  MOSUNNY   63  55  75 CALM      30.20S
$$
MIZ007>008-015-251400-
EASTERN UPPER MICHIGAN

CITY           SKY/WX    TMP DP  RH WIND       PRES   REMARKS
KINROSS        SUNNY     61  57  87 CALM      30.23R
MACKINAC ISLAN SUNNY     63  56  79 CALM      30.22R
NEWBERRY       SUNNY     62  59  87 CALM      30.21S
S. S. MARIE    SUNNY     62  54  74 CALM      30.21S
MUNISING         N/A     66  59  78 S6        30.19R
$$
MIZ004>006-011>014-085-251400-
CENTRAL UPPER MICHIGAN

CITY           SKY/WX    TMP DP  RH WIND       PRES   REMARKS
MANISTIQUE     SUNNY     66  62  86 SE5       30.20S
ESCANABA       SUNNY     65  58  78 CALM      30.20R
MENOMINEE      CLOUDY    63  58  83 W3        30.20R
SAWYER-GWINN   SUNNY     61  54  77 S3        30.19R
$$
MIZ001>003-009>011-084-251400-
WESTERN UPPER MICHIGAN

CITY           SKY/WX    TMP DP  RH WIND       PRES   REMARKS
IRON MOUNTAIN  PTSUNNY   63  54  72 CALM      30.18S
HOUGHTON       SUNNY     64  56  75 S6        30.13S
COPPER HARBOR    N/A     66  56  70 SW8       30.12R
IRONWOOD       MOSUNNY   65  57  75 S7        30.12F
$$

ABBREVIATIONS USED IN REMARKS
   TC - TEMPERATURE IN CELSIUS
  WCI - WIND CHILL INDEX
   HX - HEAT INDEX
  VSB - VISIBILITY





USA.gov is the U.S. government's official web portal to all federal, state and local government web resources and services.